TimeCET,TemperatureF,Dew PointF,Humidity,Sea Level PressureIn,VisibilityMPH,Wind Direction,Wind SpeedMPH,Gust SpeedMPH,PrecipitationIn,Events,Conditions,WindDirDegrees,DateUTC
12:00 AM,37.4,37.4,100,29.53,0.5,Calm,Calm,-,N/A,Fog,Fog,0,2013-03-09 23:00:00
1:00 AM,37.4,37.4,100,29.53,0.4,East,2.3,-,N/A,Fog,Fog,90,2013-03-10 00:00:00
2:00 AM,37.4,37.4,100,29.53,0.3,Calm,Calm,-,N/A,Fog,Fog,0,2013-03-10 01:00:00
3:00 AM,37.4,35.6,93,29.50,0.3,Calm,Calm,-,N/A,Fog,Fog,0,2013-03-10 02:00:00
4:00 AM,37.4,35.6,93,29.50,0.3,Variable,1.2,-,N/A,Fog,Fog,0,2013-03-10 03:00:00
5:00 AM,35.6,35.6,100,29.50,0.2,Variable,1.2,-,N/A,Fog,Fog,0,2013-03-10 04:00:00
6:00 AM,33.8,33.8,100,29.47,0.2,East,2.3,-,N/A,Fog,Fog,100,2013-03-10 05:00:00
7:00 AM,35.6,33.8,93,29.47,0.2,Variable,2.3,-,N/A,Fog,Fog,0,2013-03-10 06:00:00
7:30 AM,35.6,35.6,100,29.47,0.3,Variable,1.2,-,N/A,Fog,Fog,0,2013-03-10 06:30:00
8:00 AM,37.4,35.6,93,29.47,0.2,Variable,1.2,-,N/A,Fog,Fog,0,2013-03-10 07:00:00
8:30 AM,39.2,37.4,93,29.47,2.5,Calm,Calm,-,N/A,Fog,Scattered Clouds,0,2013-03-10 07:30:00
9:00 AM,41.0,41.0,100,29.47,3.1,SSW,4.6,-,N/A,,Scattered Clouds,210,2013-03-10 08:00:00
9:30 AM,42.8,41.0,93,29.44,5.0,WSW,6.9,-,N/A,,Scattered Clouds,240,2013-03-10 08:30:00
10:00 AM,42.8,41.0,93,29.47,5.6,West,8.1,-,N/A,,Mostly Cloudy,260,2013-03-10 09:00:00
10:30 AM,42.8,41.0,93,29.44,6.2,West,5.8,-,N/A,,Scattered Clouds,260,2013-03-10 09:30:00
11:00 AM,42.8,39.2,87,29.47,6.2,WSW,6.9,-,N/A,,Mostly Cloudy,250,2013-03-10 10:00:00
11:30 AM,44.6,39.2,81,29.44,6.2,WSW,8.1,-,N/A,,Mostly Cloudy,250,2013-03-10 10:30:00
12:30 PM,46.4,37.4,71,29.44,6.2,West,10.4,-,N/A,,Mostly Cloudy,260,2013-03-10 11:30:00
1:00 PM,46.4,35.6,66,29.44,6.2,WSW,9.2,-,N/A,,Mostly Cloudy,250,2013-03-10 12:00:00
1:30 PM,46.4,35.6,66,29.44,6.2,WSW,9.2,-,N/A,,Mostly Cloudy,250,2013-03-10 12:30:00
2:00 PM,46.4,35.6,66,29.42,6.2,West,12.7,-,N/A,,Mostly Cloudy,260,2013-03-10 13:00:00
2:30 PM,46.4,35.6,66,29.44,6.2,West,11.5,-,N/A,,Scattered Clouds,270,2013-03-10 13:30:00
3:00 PM,48.2,33.8,58,29.42,6.2,WSW,8.1,-,N/A,,Mostly Cloudy,250,2013-03-10 14:00:00
3:30 PM,48.2,33.8,58,29.42,6.2,West,6.9,-,N/A,,Mostly Cloudy,270,2013-03-10 14:30:00
4:00 PM,48.2,33.8,58,29.42,6.2,WNW,6.9,-,N/A,,Mostly Cloudy,290,2013-03-10 15:00:00
4:30 PM,48.2,33.8,58,29.42,6.2,WNW,6.9,-,N/A,,Scattered Clouds,290,2013-03-10 15:30:00
5:00 PM,46.4,33.8,62,29.42,6.2,West,4.6,-,N/A,,Scattered Clouds,270,2013-03-10 16:00:00
5:30 PM,46.4,35.6,66,29.42,6.2,WNW,4.6,-,N/A,,Scattered Clouds,290,2013-03-10 16:30:00
6:00 PM,44.6,33.8,66,29.42,6.2,Variable,1.2,-,N/A,,Partly Cloudy,0,2013-03-10 17:00:00
6:30 PM,41.0,35.6,81,29.42,-9999.0,East,2.3,-,N/A,,Clear,100,2013-03-10 17:30:00
7:00 PM,41.0,35.6,81,29.42,-9999.0,East,2.3,-,N/A,,Clear,100,2013-03-10 18:00:00
7:30 PM,41.0,35.6,81,29.42,-9999.0,ESE,2.3,-,N/A,,Clear,110,2013-03-10 18:30:00
7:44 PM,41.0,35.6,81,29.42,6.2,East,2.3,-,N/A,Rain,Light Rain,100,2013-03-10 18:44:00
8:00 PM,41.0,37.4,87,29.42,6.2,Calm,Calm,-,N/A,Rain,Light Rain,0,2013-03-10 19:00:00
9:00 PM,39.2,37.4,93,29.42,6.2,Variable,2.3,-,N/A,Rain,Light Rain,0,2013-03-10 20:00:00
10:00 PM,39.2,37.4,93,29.42,6.2,Variable,2.3,-,N/A,,Mostly Cloudy,0,2013-03-10 21:00:00
11:00 PM,37.4,37.4,100,29.42,6.2,SW,4.6,-,N/A,Rain,Light Rain,230,2013-03-10 22:00:00